sat.trackr.live / text

‹ back to catalog

STARLINK-6330

NORAD 57239 · 2023-094X

PAYLOAD ACTIVE UNKNOWN

§ Identity

Operator
Country
US
Launch date
2023-07-07
Launch site
AFWTR
Launch vehicle
Mass (kg)
RCS (m²)

Purposes: comms

External: N2YO · Heavens-Above · Gunter

§ Orbital elements

Epoch: 2026-05-24T21:32:31.579008Z

Period
94.27 min
Inclination
43.0047°
Eccentricity
0.0002002
Mean motion
15.27580355 rev/d
Perigee alt
481.7 km
Apogee alt
484.4 km
Semi-major
6,861.2 km
B*
5.3477e-5
RAAN
320.0603°
Arg perigee
273.4106°
Mean anomaly
86.6517°
Rev number
15,877

§ Raw data

STARLINK-63301 57239U 23094X   26144.89758772  .00001209  00000+0  53477-4 0  99952 57239  43.0047 320.0603 0002002 273.4106  86.6517 15.27580355158779

JSON: /api/v1/satellites/57239 · /tle

For live sub-satellite position, see the globe view (requires WebGL).

§ Visibility from observer

Set your observer location to see the next 7 days of passes ≥ 10°. The values pass through the URL so the page stays shareable.

No JS? Fill the form by hand. The geolocation button needs JavaScript.